User: anonymous   Login
Location: Drayton Valley
(53.2170°N, 114.9830°W)
Time: 15:07:12
(UTC-07:00)
Language:

Cosmos 1302 Rocket - Orbit

View from above orbital plane
View from above orbital plane
View from above satellite
View from above satellite

Ground track
Ground track

The orbit data is extracted from the following two-line orbital elements,

1 12792U 81084B   17018.20699474  .00000044  00000-0  23467-4 0  9994
2 12792  74.0315 311.4826 0014976 272.7377  87.2062 14.37455680853509
Epoch (UTC): 18 January 2017 04:58:04
Eccentricity: 0.0014976
inclination: 74.0315°
perigee height: 756 km
apogee height: 777 km
right ascension of ascending node: 311.4826°
argument of perigee: 272.7377°
revolutions per day: 14.37455680
mean anomaly at epoch: 87.2062°
orbit number at epoch: 85350

The dashed part of the orbit path shows where the satellite is in the earth's shadow,  

DLR